EW6341 Weather Reports


time (UTC)temp
C
wind
direction
speed
KPH
gust
KPH
rain 1hr
cm
rain 24hr
cm
rain mn
cm
humidity
%
barometer
mb
20260502213940 31 100 0.0 0.0 0.00 0.00 0.00 1 1007.1
20260502213434 31 96 0.0 0.0 0.00 0.00 0.00 1 1007.2
20260502212926 31 103 0.0 0.0 0.00 0.00 0.00 1 1007.2
20260502212425 31 124 0.0 0.0 0.00 0.00 0.00 1 1007.3
20260502212417 31 122 0.0 0.0 0.00 0.00 0.00 1 1007.4
20260502211409 31 115 0.0 0.0 0.00 0.00 0.00 1 1007.4
20260502210902 31 118 0.0 0.0 0.00 0.00 0.00 1 1007.3
20260502210359 31 119 0.0 0.0 0.00 0.00 0.00 1 1007.3
20260502205852 31 98 0.0 0.0 0.00 0.00 0.00 1 1007.3
20260502205345 31 94 0.0 0.0 0.00 0.00 0.00 1 1007.4
20260502204840 31 100 0.0 0.0 0.00 0.00 0.00 1 1007.4
20260502204606 31 115 0.0 0.0 0.00 0.00 0.00 1 1007.5
20260502203828 31 97 0.0 0.0 0.00 0.00 0.00 1 1007.5
20260502203321 32 98 0.0 0.0 0.00 0.00 0.00 1 1007.6
20260502202820 31 103 0.0 0.0 0.00 0.00 0.00 1 1007.6
20260502202319 31 117 0.0 0.0 0.00 0.00 0.00 1 1007.6
20260502201820 31 131 0.0 0.0 0.00 0.00 0.00 1 1007.6
20260502201319 31 136 0.0 0.0 0.00 0.00 0.00 1 1007.6
20260502200818 31 122 0.0 0.0 0.00 0.00 0.00 1 1007.6
20260502200317 32 102 0.0 0.0 0.00 0.00 0.00 1 1007.6
20260502195819 32 118 0.0 0.0 0.00 0.00 0.00 1 1007.6
20260502195316 31 128 0.0 0.0 0.00 0.00 0.00 1 1007.6
20260502194814 31 131 0.0 0.0 0.00 0.00 0.00 1 1007.7
20260502194313 31 115 0.0 0.0 0.00 0.00 0.00 1 1007.7
20260502193815 31 139 0.0 0.0 0.00 0.00 0.00 1 1007.7
20260502193313 31 105 0.0 0.0 0.00 0.00 0.00 1 1007.8
20260502192815 31 124 0.0 0.0 0.00 0.00 0.00 1 1007.9
20260502192314 31 126 0.0 0.0 0.00 0.00 0.00 1 1008.0
20260502191813 31 134 0.0 0.0 0.00 0.00 0.00 1 1008.1
20260502191313 31 141 0.0 0.0 0.00 0.00 0.00 1 1008.1
20260502190814 31 131 0.0 0.0 0.00 0.00 0.00 1 1008.2
20260502190308 31 129 0.0 0.0 0.00 0.00 0.00 1 1008.3
20260502185801 31 90 0.0 0.0 0.00 0.00 0.00 1 1008.3
20260502185256 31 136 0.0 0.0 0.00 0.00 0.00 1 1008.3
20260502184749 31 126 0.0 0.0 0.00 0.00 0.00 1 1008.3
20260502184244 31 113 0.0 0.0 0.00 0.00 0.00 1 1008.4
20260502183738 31 126 0.0 0.0 0.00 0.00 0.00 1 1008.4
20260502183230 31 110 0.0 0.0 0.00 0.00 0.00 1 1008.5
20260502182725 31 131 0.0 0.0 0.00 0.00 0.00 1 1008.6
20260502182219 31 101 0.0 0.0 0.00 0.00 0.00 1 1008.7
20260502181946 31 115 0.0 0.0 0.00 0.00 0.00 1 1008.8
20260502181207 31 115 0.0 0.0 0.00 0.00 0.00 1 1008.8
20260502180703 32 89 0.0 0.0 0.00 0.00 0.00 1 1008.9
20260502180156 31 123 0.0 0.0 0.00 0.00 0.00 1 1008.9
20260502170134 31 112 0.0 0.0 0.00 0.00 0.00 1 1009.6
20260502164130 31 122 0.0 0.0 0.00 0.00 0.00 1 1009.6
20260502163629 31 103 0.0 0.0 0.00 0.00 0.00 1 1009.7
20260502163129 31 107 0.0 0.0 0.00 0.00 0.00 1 1009.7
20260502162630 31 110 0.0 0.0 0.00 0.00 0.00 1 1009.8
20260502162128 31 114 0.0 0.0 0.00 0.00 0.00 1 1009.8
20260502161626 31 90 0.0 0.0 0.00 0.00 0.00 1 1009.8
20260502161125 31 102 0.0 0.0 0.00 0.00 0.00 1 1009.9
20260502160625 31 127 0.0 0.0 0.00 0.00 0.00 1 1009.9
20260502160125 31 98 0.0 0.0 0.00 0.00 0.00 1 1009.9
20260502152122 30 94 0.0 0.0 0.00 0.00 0.00 1 1009.9
20260502151621 30 92 0.0 0.0 0.00 0.00 0.00 1 1009.9
20260502151350 30 105 0.0 0.0 0.00 0.00 0.00 1 1009.9
20260502150852 30 125 0.0 0.0 0.00 0.00 0.00 1 1009.9
20260502150119 30 91 0.0 0.0 0.00 0.00 0.00 1 1009.9
20260502140109 30 123 0.0 0.0 0.00 0.00 0.00 1 1009.3
20260502130535 29 98 0.0 0.0 0.00 0.00 0.00 1 1009.1
20260502130302 29 104 0.0 0.0 0.00 0.00 0.00 1 1009.1
20260502123521 28 89 0.0 0.0 0.00 0.00 0.00 1 1008.8
20260502123020 28 103 0.0 0.0 0.00 0.00 0.00 1 1008.8
20260502122523 28 105 0.0 0.0 0.00 0.00 0.00 1 1008.7
20260502122019 28 110 0.0 0.0 0.00 0.00 0.00 1 1008.6
20260502121519 28 108 0.0 0.0 0.00 0.00 0.00 1 1008.5
20260502121016 28 101 0.0 0.0 0.00 0.00 0.00 1 1008.5
20260502120747 -17 0.0 0.0 0.00 0.00 0.00 1008.5
20260502115410 -17 0.0 0.0 0.00 0.00 0.00 1008.3
20260502114907 -17 0.0 0.0 0.00 0.00 0.00 1008.3
20260502114318 -17 0.0 0.0 0.00 0.00 0.00 1008.1
20260502113817 27 0.0 0.0 0.00 0.00 0.00 1 1008.1
20260502113310 27 92 0.0 0.0 0.00 0.00 0.00 1 1008.1
20260502112809 27 92 0.0 0.0 0.00 0.00 0.00 1 1008.1
20260502112306 27 92 0.0 0.0 0.00 0.00 0.00 1 1008.1
20260502111716 27 92 0.0 0.0 0.00 0.00 0.00 1 1008.0
20260502111218 27 92 0.0 0.0 0.00 0.00 0.00 1 1007.9
20260502110704 27 92 0.0 0.0 0.00 0.00 0.00 1 1007.9
20260502110437 27 92 0.0 0.0 0.00 0.00 0.00 1 1007.8
20260502105610 27 92 0.0 0.0 0.00 0.00 0.00 1 1007.8
20260502105016 27 92 0.0 0.0 0.00 0.00 0.00 1 1007.7
20260502104740 27 92 0.0 0.0 0.00 0.00 0.00 1 1007.7
20260502104234 27 92 0.0 0.0 0.00 0.00 0.00 1 1007.6
20260502103411 27 92 0.0 0.0 0.00 0.00 0.00 1 1007.6
20260502102817 27 92 0.0 0.0 0.00 0.00 0.00 1 1007.5
20260502102216 27 92 0.0 0.0 0.00 0.00 0.00 1 1007.5
20260502101702 27 92 0.0 0.0 0.00 0.00 0.00 1 1007.4
20260502101111 27 92 0.0 0.0 0.00 0.00 0.00 1 1007.3
20260502100610 27 92 0.0 0.0 0.00 0.00 0.00 1 1007.2
20260502100107 27 92 0.0 0.0 0.00 0.00 0.00 1 1007.3
20260502091404 28 103 0.0 0.0 0.00 0.00 0.00 1 1007.2
20260502090859 28 105 0.0 0.0 0.00 0.00 0.00 1 1007.3
20260502090353 28 101 0.0 0.0 0.00 0.00 0.00 1 1007.3
20260502071238 28 110 0.0 0.0 0.00 0.00 0.00 1 1008.1
20260502070734 28 105 0.0 0.0 0.00 0.00 0.00 1 1008.3
20260502070232 28 102 0.0 0.0 0.00 0.00 0.00 1 1008.3
20260502065732 28 92 0.0 0.0 0.00 0.00 0.00 1 1008.3
20260502065231 28 98 0.0 0.0 0.00 0.00 0.00 1 1008.4
20260502064732 28 105 0.0 0.0 0.00 0.00 0.00 1 1008.5
20260502064232 28 93 0.0 0.0 0.00 0.00 0.00 1 1008.5
20260502063730 28 95 0.0 0.0 0.00 0.00 0.00 1 1008.6
20260502063247 28 112 0.0 0.0 0.00 0.00 0.00 1 1008.6
20260502063230 28 79 0.0 0.0 0.00 0.00 0.00 1 1008.7
20260502062230 28 109 0.0 0.0 0.00 0.00 0.00 1 1008.6
20260502062002 28 101 0.0 0.0 0.00 0.00 0.00 1 1008.7
20260502061230 28 105 0.0 0.0 0.00 0.00 0.00 1 1008.8
20260502060731 28 101 0.0 0.0 0.00 0.00 0.00 1 1008.8
20260502060230 28 102 0.0 0.0 0.00 0.00 0.00 1 1008.9
20260502055732 28 107 0.0 0.0 0.00 0.00 0.00 1 1008.9
20260502055226 28 113 0.0 0.0 0.00 0.00 0.00 1 1008.9
20260502054721 28 101 0.0 0.0 0.00 0.00 0.00 1 1008.9
20260502054446 28 91 0.0 0.0 0.00 0.00 0.00 1 1009.0
20260502053709 28 96 0.0 0.0 0.00 0.00 0.00 1 1009.0
20260502053203 28 94 0.0 0.0 0.00 0.00 0.00 1 1009.1
20260502052928 28 108 0.0 0.0 0.00 0.00 0.00 1 1009.2
20260502052152 28 95 0.0 0.0 0.00 0.00 0.00 1 1009.2
20260502051654 28 97 0.0 0.0 0.00 0.00 0.00 1 1009.2
20260502051423 28 94 0.0 0.0 0.00 0.00 0.00 1 1009.3
20260502050653 28 118 0.0 0.0 0.00 0.00 0.00 1 1009.4
20260502050154 28 130 0.0 0.0 0.00 0.00 0.00 1 1009.3
20260502045654 28 121 0.0 0.0 0.00 0.00 0.00 1 1009.3
20260502045152 28 104 0.0 0.0 0.00 0.00 0.00 1 1009.4
20260502044653 28 110 0.0 0.0 0.00 0.00 0.00 1 1009.3
20260502044150 28 97 0.0 0.0 0.00 0.00 0.00 1 1009.3
20260502043649 28 109 0.0 0.0 0.00 0.00 0.00 1 1009.3
20260502043422 28 99 0.0 0.0 0.00 0.00 0.00 1 1009.2
20260502042920 28 108 0.0 0.0 0.00 0.00 0.00 1 1009.3
20260502042146 28 88 0.0 0.0 0.00 0.00 0.00 1 1009.3
20260502041648 28 101 0.0 0.0 0.00 0.00 0.00 1 1009.3
20260502041147 28 113 0.0 0.0 0.00 0.00 0.00 1 1009.2
20260502040648 28 101 0.0 0.0 0.00 0.00 0.00 1 1009.1
20260502040420 28 99 0.0 0.0 0.00 0.00 0.00 1 1009.1
20260502035647 28 80 0.0 0.0 0.00 0.00 0.00 1 1009.1
20260502035140 28 117 0.0 0.0 0.00 0.00 0.00 1 1009.0
20260502034634 28 113 0.0 0.0 0.00 0.00 0.00 1 1008.9
20260502034130 28 93 0.0 0.0 0.00 0.00 0.00 1 1008.9
20260502033621 28 91 0.0 0.0 0.00 0.00 0.00 1 1008.8
20260502033348 28 105 0.0 0.0 0.00 0.00 0.00 1 1008.7
20260502032610 28 101 0.0 0.0 0.00 0.00 0.00 1 1008.7
20260502032104 28 94 0.0 0.0 0.00 0.00 0.00 1 1008.6
20260502031559 28 93 0.0 0.0 0.00 0.00 0.00 1 1008.6
20260502031323 28 103 0.0 0.0 0.00 0.00 0.00 1 1008.5
20260502030548 28 94 0.0 0.0 0.00 0.00 0.00 1 1008.4
20260502030041 28 106 0.0 0.0 0.00 0.00 0.00 1 1008.4
20260502025533 28 96 0.0 0.0 0.00 0.00 0.00 1 1008.3
20260502025029 28 124 0.0 0.0 0.00 0.00 0.00 1 1008.3
20260502024522 28 102 0.0 0.0 0.00 0.00 0.00 1 1008.3
20260502024248 28 110 0.0 0.0 0.00 0.00 0.00 1 1008.2
20260502023510 28 115 0.0 0.0 0.00 0.00 0.00 1 1008.2
20260502023004 28 103 0.0 0.0 0.00 0.00 0.00 1 1008.2
20260502022502 28 99 0.0 0.0 0.00 0.00 0.00 1 1008.1
20260502021953 28 84 0.0 0.0 0.00 0.00 0.00 1 1007.9
20260502021447 28 98 0.0 0.0 0.00 0.00 0.00 1 1007.8
20260502021212 28 101 0.0 0.0 0.00 0.00 0.00 1 1007.8
20260502020433 28 109 0.0 0.0 0.00 0.00 0.00 1 1007.7
20260502015927 28 101 0.0 0.0 0.00 0.00 0.00 1 1007.7
20260502015422 28 79 0.0 0.0 0.00 0.00 0.00 1 1007.7
20260502014919 28 91 0.0 0.0 0.00 0.00 0.00 1 1007.7
20260502014411 28 94 0.0 0.0 0.00 0.00 0.00 1 1007.7
20260502013909 28 102 0.0 0.0 0.00 0.00 0.00 1 1007.6
20260502013409 28 106 0.0 0.0 0.00 0.00 0.00 1 1007.6
20260502012908 28 83 0.0 0.0 0.00 0.00 0.00 1 1007.4
20260502012642 28 115 0.0 0.0 0.00 0.00 0.00 1 1007.4
20260502011907 28 105 0.0 0.0 0.00 0.00 0.00 1 1007.3
20260502011409 28 101 0.0 0.0 0.00 0.00 0.00 1 1007.3
20260502010908 28 106 0.0 0.0 0.00 0.00 0.00 1 1007.2
20260502010407 28 106 0.0 0.0 0.00 0.00 0.00 1 1007.2
20260502005909 28 86 0.0 0.0 0.00 0.00 0.00 1 1007.0
20260502005408 28 107 0.0 0.0 0.00 0.00 0.00 1 1007.1
20260502004909 28 84 0.0 0.0 0.00 0.00 0.00 1 1007.0
20260502004641 28 81 0.0 0.0 0.00 0.00 0.00 1 1006.9
20260502003922 28 96 0.0 0.0 0.00 0.00 0.00 1 1006.7
20260502003908 28 89 0.0 0.0 0.00 0.00 0.00 1 1006.9
20260502002908 28 94 0.0 0.0 0.00 0.00 0.00 1 1006.8
20260502002421 29 112 0.0 0.0 0.00 0.00 0.00 1 1006.8
20260502002408 29 86 0.0 0.0 0.00 0.00 0.00 1 1006.8
20260502001407 29 110 0.0 0.0 0.00 0.00 0.00 1 1006.7
20260502000907 29 116 0.0 0.0 0.00 0.00 0.00 1 1006.7
20260502000404 29 93 0.0 0.0 0.00 0.00 0.00 1 1006.6
20260501235904 29 108 0.0 0.0 0.00 0.00 0.00 1 1006.6
20260501235405 29 104 0.0 0.0 0.00 0.00 0.00 1 1006.6
20260501234903 29 115 0.0 0.0 0.00 0.00 0.00 1 1006.6
20260501234403 29 103 0.0 0.0 0.00 0.00 0.00 1 1006.5
20260501233901 29 90 0.0 0.0 0.00 0.00 0.00 1 1006.4
20260501233400 29 107 0.0 0.0 0.00 0.00 0.00 1 1006.4
20260501232900 29 104 0.0 0.0 0.00 0.00 0.00 1 1006.3
20260501232400 30 111 0.0 0.0 0.00 0.00 0.00 1 1006.3
20260501231900 30 111 0.0 0.0 0.00 0.00 0.00 1 1006.4
20260501231402 30 94 0.0 0.0 0.00 0.00 0.00 1 1006.4
20260501230854 30 115 0.0 0.0 0.00 0.00 0.00 1 1006.4
20260501230354 30 108 0.0 0.0 0.00 0.00 0.00 1 1006.4
20260501225854 30 102 0.0 0.0 0.00 0.00 0.00 1 1006.4
20260501225355 30 100 0.0 0.0 0.00 0.00 0.00 1 1006.4
20260501224854 30 106 0.0 0.0 0.00 0.00 0.00 1 1006.3
20260501224355 30 72 0.0 0.0 0.00 0.00 0.00 1 1006.3
20260501223854 30 94 0.0 0.0 0.00 0.00 0.00 1 1006.3
20260501223355 30 92 0.0 0.0 0.00 0.00 0.00 1 1006.3
20260501222853 30 110 0.0 0.0 0.00 0.00 0.00 1 1006.2
20260501222356 30 70 0.0 0.0 0.00 0.00 0.00 1 1006.2
20260501221850 30 108 0.0 0.0 0.00 0.00 0.00 1 1006.1
20260501221350 30 114 0.0 0.0 0.00 0.00 0.00 1 1006.2
20260501220851 30 100 0.0 0.0 0.00 0.00 0.00 1 1006.3
20260501220350 30 121 0.0 0.0 0.00 0.00 0.00 1 1006.3
20260501220124 30 118 0.0 0.0 0.00 0.00 0.00 1 1006.2
20260501215350 30 128 0.0 0.0 0.00 0.00 0.00 1 1006.3
20260501215122 30 77 0.0 0.0 0.00 0.00 0.00 1 1006.2
20260501214351 30 91 0.0 0.0 0.00 0.00 0.00 1 1006.2